Optus B3

operational
NORAD ID: 23227 Int'l Des: 1994-055 Owner: OPT Country: AU
HEOCIRCULAR

Optus B3について

説明を読み込み中...

リアルタイム位置

3D地球を読み込み中...

次回通過

高度履歴

Altitude vs Time

uPlot chart will show altitude changes over time

軌道要素

1 23227U 94055A 26063.05599389 -.00000054 00000-0 00000+0 0 9993
2 23227 12.1963 31.1215 0006342 342.1631 19.0295 0.98696653114888
Epoch: Mar 4, 2026 • Age: 16 hours

現在のステータス

高度 36251.6 km
速度 3.06 km/s
衛星直下点 -6.62°S, 153.68°W
打ち上げ日 Aug 27, 1994
運用期間 31.5 years
タイプ other

技術仕様

分類 Payload
質量 2858.00 kg
乾燥質量 1582.00 kg
総質量 2858.00 kg
長さ 2.30 m
直径 2.30 m
スパン 20.60 m
形状 Box + 2 Pan
製造者 HSES
バスタイプ HS-601
フェーズステータス In Orbit
所有者/国 OPT/AU

大規模コンステレーション

Loading constellations...